Regional Weather Roundup
Issued by NWS Midland/Odessa, TX

Skip options and go directly to product.
Home | Oldest Version | Previous Version | Current Version | All | Graphics & Text | Save Text | Print | Product List | Glossary On

Skip product version selection by date and time.   
832
ASUS44 KMAF 210910
RWRMAF
MIDLAND AREA WEATHER ROUNDUP
NATIONAL WEATHER SERVICE MIDLAND TX
400 AM CDT MON APR 21 2014

...IN SOUTHWEST TEXAS AND SOUTHEAST NEW MEXICO...

CITY           SKY/WX    TMP DP  RH WIND       PRES   REMARKS
ALPINE         CLEAR     51  45  78 SW9       30.18F
ANDREWS        FAIR      60  59  96 SW13      30.03S
ARTESIA        CLEAR     55  41  58 W12       30.05S
BIG SPRING     CLOUDY    64  60  87 S18       30.03S
CARLSBAD       CLEAR     58  47  66 E5G17     30.03R
DRYDEN           N/A     70  64  81 S6        30.03S
FORT STOCKTON  CLEAR     59  57  93 S12       30.04F
GUAD PASS      CLEAR     58  36  43 SW8       30.17S
HOBBS          CLEAR     55  43  62 W6        30.06R
MARFA          CLEAR     46  36  66 CALM      30.16F
MIDLAND AIRPK  CLOUDY    64  60  88 SW12      30.03S FOG
MIDLAND INTL   CLOUDY    63  61  93 SW9       30.02S FOG
ODESSA         CLOUDY    63  60  90 S13G23    30.03S FOG
PECOS          CLEAR     54  48  81 W5        30.02S
PRESIDIO       FAIR      67  56  66 N9        30.04F
SEMINOLE       CLEAR     58  56  92 W9        30.05R
SNYDER         CLOUDY    61  59  94 S12       30.00F
WINK           CLEAR     59  58  96 SE7       30.01S
$$
...OTHER STATIONS IN TEXAS...

CITY           SKY/WX    TMP DP  RH WIND       PRES   REMARKS
ABILENE        CLOUDY    66  61  84 S12G21    29.97F
AMARILLO       FOG       46  46 100 W8        30.01R VSB 1/2
AUSTIN         MOCLDY    66  62  87 S8        30.04S
BROWNSVILLE    CLOUDY    69  67  93 SE12      30.00F
CORPUS CHRISTI CLOUDY    70  65  84 S9        30.04R
DALLAS FTW     MOCLDY    63  60  90 SE10      30.00F
DEL RIO        CLOUDY    69  64  84 SE8       30.01S
EL PASO        CLEAR     59  45  59 E3        30.09S
HOUSTON INT    MOCLDY    65  62  90 SE5       30.07F
LUBBOCK        CLEAR     54  50  86 W6        30.00S
SAN ANGELO     MOCLDY    66  62  87 SW16      30.00S
SAN ANTONIO    CLOUDY    68  63  84 S9        30.05F
WACO           CLEAR     64  58  80 S14       30.02F
WICHITA FALLS  NOT AVBL
$$
...OTHER LOCATIONS IN NEW MEXICO...

CITY           SKY/WX    TMP DP  RH WIND       PRES   REMARKS
ALAMAGORDO     PTCLDY    54  37  54 SE3       30.11S
ALBUQUERQUE    PTCLDY    55  35  47 SE7       30.16R
CANNON AFB     PTCLDY    57  42  59 NW10      30.07R
CLOVIS           N/A     52  41  66 NW9       30.09R
HOLLOMAN AFB   PTCLDY    54  39  56 E3        30.09S
ROSWELL        CLEAR     56  45  66 NW5       30.06R
RUIDOSO        CLEAR     50  32  50 W9        30.23S
SANTA FE       PTCLDY    48  35  60 NE8       30.20R
TRUTH OR CONSE CLEAR     59  37  44 W14       30.13S
TUCUMCARI      PTCLDY    53  42  66 W9        30.05F
$$

USA.gov is the U.S. government's official web portal to all federal, state and local government web resources and services.